Temp
4 3 3 3 3 3 3 4 4 3 3 3 3 4 4 4 3 3 3 3 3 3 4 4 5 4 4 5 5 6 6 5 6 6 8 9 9 10 8 10 9 9 8 8 8 8 9 11 12 13 12 13 12 13
3 3 3 3 3 3 3 3 3 3 3 3 3 3 3 3 3 3 3 3 2 2 3 3 4 4 5 5 5 5 5 5 6 5 5 5 6 7 6 8 8 9 11 10 10 11 12 11 12 12 11 12 12 11
3 3 3 3 3 3 3 3 3 3 3 3 2 2 2 2 2 2 3 2 2 2 3 2 3 3 3 3 4 3 5 5 6 7 6 5 4 7 7 8 7 9 8 9 10 12 11 11 12 11 10 12 11 10
3 3 3 3 3 3 3 2 2 2 2 2 2 2 2 2 2 2 2 2 2 2 1 3 3 2 4 3 2 3 4 5 5 5 4 3 4 7 6 7 7 9 8 8 9 9 10 12 11 11 10 11 12 11
2 2 3 3 3 3 2 2 2 2 2 2 2 1 1 1 1 1 1 1 1 2 1 2 2 3 2 3 2 2 2 3 3 3 3 3 4 4 5 5 5 7 7 7 8 11 11 12 12 12 9 9 10 10
2 2 2 3 3 2 2 2 2 1 2 2 2 1 1 1 1 1 1 1 1 0 1 0 1 1 2 2 2 2 2 3 2 2 3 4 4 4 4 5 7 8 7 8 8 9 10 10 10 10 9 9 9 10
2 2 2 3 2 2 2 1 1 1 1 1 1 1 1 1 1 1 2 1 1 1 0 -1 0 2 1 1 1 2 2 2 2 2 2 3 4 4 3 3 6 7 8 8 8 8 8 9 8 9 9 9 9 8
2 2 2 2 2 2 1 1 1 1 1 1 1 1 1 1 1 1 1 1 1 0 1 -1 -0 0 1 3 3 2 2 2 2 3 4 4 4 3 2 5 6 7 7 7 8 8 8 9 9 8 7 7 8 9
2 2 2 2 1 1 1 1 1 1 1 1 1 1 1 -0 -0 0 0 0 0 1 0 -1 -1 1 1 2 2 2 2 1 3 1 3 4 4 3 5 6 7 7 7 7 8 8 8 8 8 8 8 8 7 7
2 2 2 1 1 1 1 1 1 1 1 1 1 0 -1 -0 -0 0 -0 -1 -0 -0 -0 -0 -0 0 1 2 2 3 3 3 3 4 4 3 4 6 7 3 2 2 2 2 3 4 6 6 7 7 8 8 7 7
2 1 1 1 1 1 0 0 0 0 0 0 -2 -2 -1 -0 -0 -1 -2 -1 -0 -1 1 1 0 0 2 0 1 3 2 3 4 5 4 5 4 2 2 1 1 1 1 1 1 2 3 4 6 7 7 7 6 6
1 1 1 0 0 0 0 0 0 0 0 0 -0 -1 -1 -1 -2 -2 -3 -2 -1 1 1 1 1 1 1 0 1 1 2 2 3 3 4 4 2 1 -0 -0 -0 -0 -0 -0 0 1 1 2 3 6 7 6 5 5
1 1 0 0 0 0 0 0 0 -0 -0 -1 -2 -3 -2 -4 -3 -2 -2 -0 0 0 0 0 -1 0 0 1 1 1 2 3 3 4 5 2 -0 -1 -1 -1 -1 -1 -1 -1 -1 -1 -0 1 1 3 5 5 5 4
1 0 0 0 0 -0 -0 -0 -0 -0 -0 -4 -5 -6 -4 -4 -4 -2 -1 -1 0 -0 -1 -1 -2 -1 1 1 2 3 4 4 5 5 2 0 -2 -2 -2 -2 -2 -3 -3 -3 -3 -2 -2 1 2 2 3 2 2 2
0 0 0 -0 -0 -0 -0 -1 -1 -1 -1 -5 -5 -5 -5 -3 -3 -3 -4 -3 -2 -3 -3 -2 -2 -1 0 2 3 3 5 4 1 1 -0 -2 -3 -3 -3 -3 -3 -3 -3 -3 -3 -3 -2 -2 -2 -2 -2 -1 -0 -0
-0 -0 -0 -0 -0 -0 -1 -1 -1 -1 -2 -5 -5 -4 -5 -4 -4 -4 -5 -4 -4 -3 -3 -4 -3 -2 0 2 2 0 1 0 -0 -2 -3 -3 -3 -4 -4 -4 -4 -4 -4 -4 -4 -4 -4 -4 -4 -4 -4 -4 -4 -3
-0 -0 0 -0 -1 -1 -1 -1 -3 -3 -2 -3 -5 -4 -3 -4 -3 -3 -3 -3 -3 -3 -3 -2 -1 -0 0 1 0 -1 -1 -2 -3 -3 -4 -4 -5 -5 -4 -4 -4 -4 -4 -4 -4 -4 -4 -4 -4 -4 -4 -5 -5 -5
-0 -0 -1 -1 -1 -2 -2 -3 -6 -4 -4 -4 -4 -4 -4 -3 -2 -3 -3 -3 -4 -3 -2 -2 -3 -1 -1 -1 -1 -2 -2 -2 -3 -4 -4 -5 -5 -6 -6 -5 -6 -5 -5 -5 -5 -5 -5 -4 -4 -4 -5 -5 -5 -5
-0 -1 -1 -1 -1 -1 -4 -7 -6 -5 -5 -6 -6 -5 -3 -3 -3 -4 -4 -5 -5 -4 -4 -4 -3 -4 -4 -4 -5 -5 -3 -3 -3 -4 -5 -6 -6 -7 -7 -7 -6 -6 -6 -6 -6 -6 -6 -6 -5 -5 -5 -5 -5 -5
-1 -1 -1 -2 -2 -2 -9 -10 -9 -8 -7 -6 -6 -5 -5 -4 -5 -5 -5 -5 -4 -4 -5 -6 -6 -6 -6 -6 -6 -6 -4 -3 -3 -3 -5 -6 -7 -7 -8 -8 -8 -8 -7 -7 -7 -6 -7 -7 -7 -6 -6 -6 -7 -7
-2 -3 -2 -3 -3 -4 -9 -10 -10 -7 -7 -7 -10 -8 -7 -7 -5 -6 -7 -6 -6 -7 -6 -6 -7 -7 -8 -8 -8 -7 -6 -5 -5 -5 -5 -6 -8 -8 -8 -9 -9 -9 -8 -8 -8 -8 -8 -8 -8 -8 -8 -8 -8 -8
-3 -4 -3 -4 -6 -9 -12 -13 -10 -11 -10 -10 -10 -11 -9 -8 -7 -6 -7 -7 -7 -7 -7 -7 -7 -8 -8 -8 -9 -9 -8 -8 -8 -8 -9 -8 -8 -9 -9 -10 -9 -9 -10 -10 -10 -9 -9 -9 -9 -9 -9 -9 -8 -8
-3 -3 -4 -6 -9 -11 -11 -14 -11 -14 -8 -10 -13 -10 -10 -10 -9 -8 -6 -6 -7 -8 -8 -8 -8 -9 -9 -9 -10 -10 -10 -10 -10 -10 -10 -10 -11 -11 -11 -12 -11 -10 -10 -11 -11 -11 -11 -10 -10 -10 -10 -9 -10 -10
-3 -7 -13 -14 -15 -10 -16 -15 -16 -14 -13 -12 -11 -10 -11 -11 -11 -6 -6 -7 -7 -8 -9 -9 -9 -8 -8 -9 -10 -11 -11 -10 -10 -11 -11 -10 -11 -12 -13 -13 -13 -12 -12 -12 -11 -11 -11 -11 -10 -10 -10 -10 -10 -11
-7 -10 -13 -11 -19 -13 -14 -14 -15 -12 -12 -17 -13 -11 -12 -15 -10 -8 -7 -8 -8 -9 -9 -10 -9 -9 -9 -9 -10 -11 -11 -11 -11 -12 -13 -12 -11 -12 -12 -12 -13 -13 -12 -11 -12 -12 -11 -11 -10 -10 -10 -10 -11 -11
-9 -13 -11 -11 -13 -11 -12 -10 -14 -14 -15 -14 -14 -14 -16 -13 -12 -10 -9 -10 -9 -10 -11 -11 -11 -9 -10 -11 -11 -11 -12 -11 -12 -12 -13 -12 -12 -13 -13 -13 -12 -12 -12 -12 -12 -12 -11 -11 -11 -11 -11 -11 -11 -11
-11 -12 -12 -9 -9 -11 -11 -12 -13 -13 -15 -12 -14 -14 -14 -13 -13 -11 -10 -12 -11 -13 -14 -13 -13 -11 -11 -12 -13 -13 -12 -11 -12 -13 -13 -13 -12 -13 -13 -14 -14 -13 -12 -12 -12 -12 -12 -11 -11 -11 -11 -11 -11 -11
-14 -13 -11 -14 -13 -14 -14 -15 -16 -14 -14 -12 -12 -14 -13 -12 -11 -12 -12 -13 -13 -14 -14 -13 -13 -13 -12 -12 -12 -12 -12 -12 -12 -11 -11 -12 -12 -12 -12 -13 -12 -13 -12 -11 -12 -12 -11 -11 -11 -11 -11 -11 -11 -11
-13 -11 -12 -15 -15 -15 -15 -14 -13 -11 -10 -13 -13 -13 -14 -13 -14 -14 -13 -13 -13 -13 -13 -14 -14 -13 -13 -13 -12 -12 -11 -11 -11 -13 -13 -12 -13 -12 -12 -12 -12 -12 -11 -11 -11 -11 -10 -11 -11 -11 -11 -11 -11 -12
-13 -14 -14 -16 -14 -13 -14 -14 -14 -13 -11 -12 -12 -13 -13 -13 -14 -14 -13 -13 -13 -13 -13 -13 -13 -13 -13 -13 -13 -12 -12 -12 -12 -12 -13 -12 -13 -12 -12 -12 -12 -11 -11 -11 -11 -11 -11 -11 -11 -11 -12 -12 -12 -12
-13 -16 -16 -15 -14 -14 -14 -14 -13 -11 -13 -15 -15 -14 -14 -14 -14 -14 -14 -14 -14 -13 -14 -14 -13 -13 -13 -13 -13 -13 -13 -12 -11 -11 -12 -12 -12 -12 -12 -12 -12 -12 -12 -12 -12 -12 -12 -12 -12 -12 -12 -13 -13 -13
-14 -17 -14 -14 -12 -14 -14 -14 -14 -13 -14 -13 -14 -14 -14 -12 -13 -14 -15 -14 -14 -14 -13 -13 -13 -13 -13 -13 -13 -13 -12 -12 -11 -11 -11 -11 -12 -12 -12 -12 -12 -12 -12 -12 -12 -12 -12 -12 -13 -13 -13 -13 -14 -14
-19 -20 -20 -17 -15 -14 -15 -14 -14 -14 -14 -14 -13 -13 -14 -12 -13 -14 -15 -14 -14 -14 -13 -13 -13 -13 -13 -13 -13 -13 -13 -12 -12 -12 -11 -11 -11 -12 -12 -12 -12 -12 -12 -12 -12 -12 -12 -13 -13 -13 -14 -13 -13 -13
Height
803 814 821 825 827 831 835 836 838 840 842 844 847 848 849 849 850 852 855 854 857 855 851 850 850 848 847 848 843 840 840 838 835 830 817 804 800 793 797 784 788 787 790 795 796 795 781 755 753 748 755 752 750 745
804 811 819 823 827 829 834 836 838 839 841 843 845 847 849 850 850 851 852 853 854 855 849 845 843 843 842 842 841 843 840 836 835 833 829 827 818 809 805 790 789 782 773 773 770 758 754 758 754 755 758 754 749 748
803 809 817 822 826 828 834 836 837 839 840 842 844 847 848 848 849 850 850 851 852 853 846 841 836 835 834 835 838 838 833 834 831 831 829 825 824 810 801 789 793 778 781 773 769 750 758 758 755 756 756 752 751 750
801 806 815 819 825 826 831 835 836 839 840 842 844 845 848 848 848 847 850 850 851 852 847 835 832 832 827 828 831 833 831 831 830 831 831 827 819 806 802 797 789 782 783 776 766 764 755 747 751 751 754 752 749 748
801 806 813 817 824 827 828 831 835 839 840 841 844 843 845 847 846 845 846 846 848 851 844 834 832 819 819 822 824 826 827 830 830 829 824 819 816 815 804 798 784 791 785 778 758 755 750 745 748 750 752 751 750 749
799 806 812 818 823 826 825 832 836 837 837 839 841 842 845 845 844 844 844 843 841 843 844 837 827 815 815 814 815 817 820 824 825 821 816 810 809 811 794 772 773 773 767 765 758 753 751 750 749 749 748 744 747 745
800 805 810 816 821 822 827 832 835 835 837 838 840 841 842 842 842 844 843 844 844 843 845 840 827 815 812 811 813 812 814 816 817 815 806 804 800 801 790 771 760 763 760 757 753 751 748 745 741 740 742 741 740 740
798 804 810 814 818 823 826 830 834 835 837 837 838 837 838 838 837 838 838 840 842 844 843 840 831 824 815 808 808 810 809 811 807 801 795 793 791 794 778 749 743 745 750 750 745 744 740 734 736 734 736 737 736 734
798 804 807 812 818 822 826 830 832 834 835 835 834 832 833 833 834 836 837 837 838 843 837 836 835 823 816 812 811 809 808 804 795 794 787 785 779 773 737 739 741 741 740 735 734 732 729 729 724 725 724 726 728 727
796 801 807 812 818 821 827 829 830 831 831 831 829 831 834 833 834 836 835 836 835 835 835 831 830 824 820 814 808 804 797 790 782 772 773 774 758 744 742 749 749 747 745 743 735 724 723 719 718 715 715 715 717 718
794 801 808 812 817 822 825 827 829 830 830 830 831 832 833 835 835 835 837 835 833 832 826 822 821 820 815 814 810 804 798 784 768 760 763 752 749 756 757 754 750 745 741 738 733 723 721 716 710 706 706 707 709 710
797 801 808 812 816 820 823 826 828 829 830 831 831 830 834 834 836 837 838 835 830 820 821 818 817 816 810 808 806 801 795 785 769 764 758 745 757 760 758 751 744 740 735 729 725 718 712 708 704 700 698 700 702 703
798 803 808 812 815 818 822 825 826 828 829 830 832 833 834 839 839 833 832 822 821 821 820 821 821 814 807 804 801 796 785 770 761 754 741 755 763 761 757 750 742 736 730 722 714 709 702 696 695 693 690 693 696 698
799 803 807 811 816 818 822 823 826 828 828 832 837 844 836 839 834 828 823 823 822 821 821 821 819 813 801 795 787 776 762 755 741 737 753 762 767 763 757 750 742 734 726 718 709 700 693 686 685 686 688 691 693 696
799 803 808 812 815 817 820 824 826 826 827 834 836 840 836 826 826 826 827 825 822 822 822 820 816 811 799 787 769 763 749 748 768 771 773 775 771 766 758 751 744 736 728 720 710 702 695 692 691 692 693 694 696 700
799 806 808 811 813 817 821 823 824 826 827 831 832 829 829 830 827 827 826 824 822 821 821 820 815 807 792 776 769 777 770 775 779 784 783 779 774 769 763 756 749 742 733 725 718 711 706 703 702 702 701 702 705 707
799 802 806 811 814 818 821 822 823 826 827 827 827 824 824 824 821 820 820 818 819 820 816 810 804 793 786 778 781 786 786 789 790 788 786 783 780 773 767 760 754 747 740 733 728 722 717 716 713 710 711 715 715 717
799 803 808 811 813 816 818 820 824 826 825 824 824 819 820 818 817 817 817 817 818 814 811 805 806 795 790 787 786 793 792 792 792 791 789 787 783 778 773 767 761 755 750 744 739 734 730 727 724 726 726 726 725 728
799 804 807 810 812 814 818 823 824 824 822 823 820 818 816 815 815 816 815 814 813 813 812 808 805 806 803 802 804 802 796 793 792 793 792 790 786 783 779 774 769 764 759 755 751 747 744 741 741 739 738 737 737 742
801 805 808 809 812 814 821 824 824 823 823 819 818 817 816 814 815 815 814 812 809 810 812 813 813 813 813 811 809 805 799 795 793 793 794 793 791 788 785 782 777 774 770 766 762 759 756 754 752 752 751 751 752 754
801 805 808 810 812 814 818 822 823 822 821 820 822 820 817 816 814 815 815 814 814 817 816 817 816 815 814 811 808 804 801 798 798 798 797 797 797 795 792 790 787 783 779 777 775 773 770 769 769 767 765 764 765 766
801 805 808 810 811 815 820 824 824 824 825 823 822 824 821 818 816 816 817 817 820 821 820 819 817 815 813 812 810 807 805 803 802 802 802 801 802 800 799 798 795 793 791 790 788 786 784 783 780 777 775 775 775 775
802 805 806 809 815 819 826 825 824 828 822 823 828 823 824 824 821 819 817 819 822 823 821 819 817 817 816 815 813 810 809 808 808 808 808 808 808 808 807 806 804 801 799 798 796 794 792 790 788 785 784 783 783 782
802 805 814 820 825 824 829 833 832 831 831 829 830 827 828 827 825 817 817 820 823 823 822 820 818 818 819 818 817 816 815 814 813 813 813 812 812 813 812 811 809 807 805 803 801 799 797 795 794 792 791 790 789 789
808 818 822 824 834 829 834 834 838 830 834 847 838 830 831 835 829 823 818 824 824 825 825 823 822 822 821 821 821 821 820 818 818 818 818 816 816 816 816 814 812 810 808 806 805 803 802 800 799 797 796 795 794 794
818 825 823 823 829 825 830 828 838 837 842 839 839 837 839 833 836 832 827 829 828 828 828 827 826 824 825 825 824 824 824 823 822 822 823 821 820 819 819 817 815 814 812 811 809 808 806 805 804 802 800 799 798 797
823 825 822 819 819 823 826 829 832 834 842 835 836 839 837 840 842 833 832 832 831 830 829 828 827 827 827 828 827 827 826 826 825 826 826 824 823 822 821 820 818 817 815 813 812 811 810 809 807 806 804 802 801 801
820 820 823 827 827 828 833 836 841 838 836 830 832 840 839 834 833 834 834 833 832 832 830 830 829 829 829 830 830 830 829 829 829 828 828 828 826 825 823 821 820 818 817 814 813 812 812 810 808 806 805 803 802 801
820 818 820 832 832 831 833 832 832 827 826 829 832 834 838 835 836 835 834 833 833 833 833 832 832 832 832 832 831 831 830 831 831 831 832 831 829 827 825 823 821 819 816 814 813 812 812 810 808 806 805 804 803 801
821 820 826 833 831 830 831 828 829 827 827 828 829 832 835 836 836 835 834 834 834 833 833 833 833 834 834 834 834 834 835 835 834 834 834 833 832 830 827 825 822 820 818 817 815 814 812 810 808 807 806 804 802 801
820 823 828 829 830 829 828 827 827 826 827 829 831 833 835 836 837 837 836 835 835 834 835 835 835 836 836 837 837 837 838 839 838 837 836 836 834 831 828 825 823 822 820 818 817 815 812 810 808 807 805 804 803 802
822 828 826 829 827 828 827 827 828 828 829 830 832 833 834 834 836 838 838 836 836 836 836 836 837 838 838 839 839 839 840 840 839 838 837 835 833 831 829 827 825 823 821 820 817 815 813 811 810 809 808 807 805 803
830 832 833 831 831 830 830 830 831 833 833 833 832 832 834 832 835 838 837 837 837 836 836 837 838 838 839 840 840 840 840 839 838 837 837 836 835 833 830 828 826 824 821 819 817 815 815 814 812 810 808 806 804 802
Wind_Speed
25 22 19 16 17 15 12 10 11 13 11 11 8 6 4 6 6 5 3 4 2 2 5 10 7 6 5 5 7 3 7 2 3 4 4 5 6 4 5 4 4 6 8 5 6 6 10 2 2 1 5 8 10 10
23 22 18 17 16 17 15 14 14 13 11 10 8 5 4 4 2 1 2 3 5 3 4 9 13 17 22 23 9 5 7 5 2 3 1 3 3 3 4 3 2 5 5 3 8 5 2 3 3 4 4 10 10 9
22 21 19 16 19 18 16 14 13 12 10 9 8 7 7 6 4 2 4 4 2 4 7 5 9 14 18 25 25 8 8 9 8 9 6 4 8 5 6 7 4 4 2 4 4 5 4 11 11 4 3 11 10 8
22 21 20 17 20 20 18 16 12 11 10 9 7 5 3 2 2 3 6 5 3 4 4 5 6 10 13 12 18 24 24 14 9 4 6 5 7 6 9 11 12 10 9 7 13 15 20 14 11 5 6 9 11 9
20 18 17 19 22 20 18 14 13 11 9 7 4 3 2 0 1 6 11 14 12 5 3 5 16 34 28 21 21 21 21 14 8 9 7 8 4 6 11 14 13 13 18 12 17 20 18 19 16 14 10 15 16 12
18 18 17 19 23 20 16 15 13 11 7 5 3 1 2 2 2 5 3 2 1 11 2 4 4 9 14 13 16 18 16 9 7 4 6 6 15 8 10 14 17 18 24 25 23 24 22 21 21 23 21 20 15 16
19 19 18 22 22 19 16 14 11 8 6 3 3 4 5 5 6 4 2 2 6 6 1 5 5 3 4 1 1 3 10 5 5 5 8 11 11 7 9 20 22 20 19 17 20 21 24 24 18 18 15 17 12 10
18 18 17 24 21 18 16 12 9 6 4 3 5 7 8 10 10 10 15 18 13 3 3 3 4 6 3 2 2 3 3 5 5 5 4 7 6 6 8 19 22 22 22 25 27 23 24 25 20 18 14 13 14 16
19 20 22 24 21 17 14 11 8 5 2 4 7 12 10 1 3 1 3 2 5 8 2 2 2 4 4 1 2 2 3 4 5 5 5 5 6 8 19 17 17 14 12 18 18 20 22 23 25 23 21 17 14 15
20 23 26 23 19 17 14 10 7 3 1 6 5 2 1 3 2 8 2 1 3 4 3 4 3 4 2 5 3 3 3 3 3 6 4 5 8 17 14 13 13 13 12 11 13 18 16 17 19 21 20 17 14 14
28 27 23 21 18 15 12 9 5 2 1 1 2 0 1 4 3 2 1 2 3 2 3 3 3 5 4 5 4 3 3 3 4 3 5 3 3 4 13 15 15 16 15 14 15 20 17 18 17 16 16 15 11 14
26 25 22 19 17 13 10 7 6 4 2 2 2 2 1 1 0 2 2 1 4 2 1 2 4 5 4 4 4 3 3 2 6 4 3 3 3 13 15 18 19 18 18 19 19 20 19 18 17 16 15 12 12 16
24 22 19 17 15 12 9 7 4 5 5 2 2 2 1 1 1 3 3 2 1 1 1 4 6 3 3 4 4 4 6 6 2 4 3 2 9 14 15 15 18 19 20 19 20 22 23 20 21 19 14 17 16 11
22 20 17 15 13 10 10 9 8 7 2 2 2 3 3 2 4 3 2 1 1 3 4 6 4 3 3 5 4 5 6 3 4 2 5 5 14 16 15 14 15 18 18 17 15 13 12 10 7 5 6 6 7 6
21 18 16 14 12 8 11 9 8 4 3 2 2 4 5 3 2 1 1 1 2 2 2 4 4 3 3 5 4 5 4 1 4 3 4 8 13 13 14 15 15 14 13 12 12 10 8 10 11 13 13 13 14 13
20 15 13 13 9 13 12 9 4 3 3 2 2 2 2 1 2 1 2 2 1 1 2 2 4 3 5 4 4 4 5 3 3 4 6 8 11 11 12 12 12 14 14 12 15 15 16 15 13 16 23 24 22 21
17 6 13 15 15 13 9 4 3 2 2 3 3 3 4 4 5 2 2 2 3 2 2 3 4 5 4 3 2 3 3 3 4 5 5 8 10 11 12 13 16 18 17 18 19 20 20 22 24 24 17 22 27 27
9 20 19 15 11 8 4 3 4 3 5 4 3 2 2 2 2 2 1 2 2 2 2 2 3 3 2 2 2 3 1 1 2 4 5 7 11 15 16 14 18 20 20 21 22 23 24 22 20 16 22 23 28 27
19 19 11 10 6 4 4 1 2 3 6 1 3 2 2 1 2 1 3 6 8 6 3 2 2 1 2 2 3 6 6 2 2 2 3 11 14 15 16 17 18 21 22 22 21 20 22 26 23 21 21 24 23 22
12 9 11 10 8 4 3 1 1 1 2 1 1 1 1 1 0 0 3 4 2 2 2 1 1 2 3 5 5 6 6 2 1 1 3 7 13 14 17 16 17 18 19 20 23 24 21 23 26 24 25 24 22 19
11 10 11 9 3 2 4 1 1 0 2 1 1 2 1 2 0 1 2 3 2 2 1 1 3 4 8 7 7 7 6 7 4 3 3 3 11 12 14 16 16 17 16 17 16 19 22 19 18 19 21 22 21 21
5 12 5 5 3 3 3 2 0 1 1 1 0 1 1 1 1 1 1 2 1 2 2 2 4 3 4 5 9 10 8 10 11 11 12 10 6 10 12 15 14 14 15 15 15 15 16 17 16 19 19 18 19 21
10 6 3 3 4 3 2 3 1 3 1 2 1 2 1 1 1 4 2 1 1 2 5 3 5 7 6 8 10 15 14 11 10 11 11 12 11 11 11 13 13 12 12 14 13 13 14 16 17 18 17 17 16 16
7 4 4 2 2 2 1 3 1 2 2 2 2 1 2 2 4 1 2 1 1 4 6 8 7 2 3 7 8 11 11 9 11 12 11 10 11 11 11 11 12 13 13 12 13 15 17 15 15 17 16 15 15 13
5 3 4 2 2 3 3 3 4 2 1 1 1 2 2 2 2 1 1 1 2 3 4 7 6 6 3 3 6 9 11 10 9 9 10 9 7 6 7 11 13 16 17 17 16 16 16 16 16 15 14 14 13 12
3 3 2 3 1 2 3 1 1 2 1 1 2 1 2 2 3 1 1 2 2 3 4 4 4 2 3 6 3 5 7 8 9 10 10 12 11 8 6 6 7 11 16 14 13 13 13 14 14 13 12 11 10 10
3 3 0 1 1 3 2 2 2 2 2 2 1 1 2 2 2 1 1 3 2 4 5 3 3 4 4 6 8 10 11 11 13 13 13 15 14 13 12 8 8 11 14 11 10 10 10 11 11 10 10 9 8 8
3 2 4 2 2 1 4 2 2 2 2 2 1 1 4 4 3 1 2 3 3 6 5 5 5 6 8 8 7 6 6 5 4 4 4 7 11 14 13 11 9 9 9 9 9 8 6 11 9 10 9 8 8 8
2 1 3 3 2 2 1 2 3 1 0 2 3 2 2 0 1 2 2 1 1 2 4 6 7 8 9 9 8 7 6 5 6 5 5 4 7 13 15 12 12 12 12 11 9 7 9 9 9 8 8 8 8 7
1 1 3 2 3 1 2 2 1 1 1 2 2 2 2 1 3 3 1 2 2 1 1 2 5 6 9 12 14 16 14 13 13 10 4 4 8 12 13 12 13 13 12 11 11 9 6 6 6 6 7 8 8 9
1 2 3 2 1 2 2 1 2 0 2 2 2 2 2 2 2 6 7 3 3 4 5 7 8 9 10 10 10 10 9 10 11 11 9 10 11 13 12 12 12 12 12 11 11 11 11 10 10 10 10 10 9 9
2 2 3 3 1 1 2 1 1 1 1 2 1 1 1 1 1 2 7 3 2 4 4 6 8 8 7 6 6 6 6 6 9 13 12 14 15 15 12 13 13 12 11 10 11 12 12 11 11 10 10 9 9 9
2 1 2 2 2 1 2 2 3 1 2 1 1 1 1 1 2 1 2 6 4 3 4 7 10 9 9 7 6 5 5 4 4 8 8 10 11 12 13 14 14 14 13 12 12 12 10 9 9 9 9 10 11 11
Wind_Direction
161 168 172 172 169 165 161 149 149 154 145 130 118 110 92 84 122 153 142 191 226 246 240 228 219 215 232 246 262 303 315 178 241 234 252 247 255 239 273 257 200 191 177 189 202 222 257 346 245 308 351 338 328 335
164 166 170 170 175 164 157 150 144 141 143 146 149 150 124 104 71 108 193 223 254 220 265 237 240 251 248 250 264 236 257 271 293 301 33 317 297 275 314 271 267 241 237 219 213 220 25 357 19 100 14 354 353 333
159 163 167 168 165 161 160 154 150 146 137 132 124 121 113 105 95 195 252 260 271 276 279 263 253 265 260 242 235 241 247 236 238 250 286 271 249 271 262 254 291 245 352 256 281 247 288 315 305 214 351 356 342 338
160 162 170 169 165 160 161 160 147 142 137 135 135 127 111 98 78 289 282 276 253 284 276 282 310 278 274 263 242 233 248 257 282 272 256 250 263 244 263 264 264 263 317 292 273 284 298 283 248 227 311 334 338 333
159 163 168 172 167 164 161 151 149 149 144 141 156 142 135 120 318 286 288 276 259 225 278 285 302 279 274 270 247 239 231 241 251 254 241 250 252 269 259 262 252 250 253 257 262 262 263 270 279 283 292 302 310 311
161 172 176 177 166 163 153 156 155 157 160 170 165 178 256 269 291 330 330 354 323 206 263 297 290 284 287 265 252 228 223 222 226 221 238 242 236 242 263 259 265 241 231 245 258 265 269 277 280 282 281 287 290 269
167 169 177 173 163 157 156 157 158 158 157 180 227 250 267 265 263 211 218 140 99 117 341 300 282 294 306 269 193 199 198 213 222 237 228 241 246 238 260 265 256 259 260 255 257 265 268 263 266 274 273 275 267 272
170 172 174 165 160 159 157 155 154 158 188 230 265 281 287 280 275 266 259 248 238 246 229 259 277 315 357 310 307 161 184 205 221 236 238 234 246 221 252 254 262 260 258 253 256 257 257 266 269 270 262 253 268 276
172 174 172 159 158 155 154 153 157 170 208 274 291 299 300 148 156 184 301 275 227 210 239 236 246 291 349 310 302 251 217 236 229 223 226 213 224 226 240 263 281 301 292 271 263 258 253 254 260 260 260 262 259 266
174 169 155 154 154 152 155 153 153 154 270 313 325 40 351 164 85 324 52 65 188 177 223 242 205 263 316 293 289 284 237 244 255 220 178 219 245 259 288 335 329 323 314 309 285 270 262 254 254 257 255 255 251 252
154 150 152 152 153 153 151 147 142 162 69 42 47 173 65 331 289 39 80 197 176 243 220 249 237 259 234 231 220 233 271 265 258 199 211 238 252 0 334 323 317 314 307 298 280 278 281 273 266 255 253 248 239 240
149 150 153 153 151 150 150 154 158 175 171 182 285 328 16 57 119 169 219 230 221 242 317 324 315 279 269 209 211 206 253 267 256 149 226 239 42 340 331 324 319 316 312 303 292 285 282 272 264 254 251 244 228 235
152 151 152 151 149 148 149 156 174 161 164 122 64 58 48 268 216 190 215 211 272 358 285 326 315 277 289 204 225 235 226 229 170 226 231 48 342 336 331 325 319 317 317 308 302 292 283 273 258 244 239 235 235 232
154 152 151 150 151 150 152 148 158 152 145 93 101 337 167 242 240 198 164 225 255 237 311 308 277 252 253 226 228 246 223 246 245 280 1 354 341 330 328 329 327 325 324 322 317 302 291 270 239 208 215 211 197 185
154 153 152 155 158 153 156 161 163 153 132 128 111 222 217 230 269 248 277 251 260 277 305 297 264 246 258 269 218 241 240 46 27 357 321 332 330 331 335 336 337 338 336 336 341 356 26 64 76 71 72 90 101 109
148 146 166 162 159 153 161 166 151 137 109 110 218 259 203 265 274 249 222 246 234 292 285 231 254 268 252 257 328 16 329 26 351 331 326 329 334 337 342 347 349 349 355 4 17 31 43 47 65 76 71 70 73 80
153 136 166 159 150 159 168 154 119 121 194 220 247 249 238 268 260 226 197 231 162 278 240 244 240 234 292 298 19 14 355 333 324 332 339 344 340 343 349 357 4 8 12 20 29 39 51 60 67 68 69 68 73 72
132 144 147 157 168 161 129 118 103 178 233 217 229 224 198 226 233 245 264 228 247 221 221 252 311 271 294 320 43 359 326 277 17 354 356 353 1 0 0 3 9 16 24 27 34 42 44 50 58 59 64 70 70 67
145 156 161 173 176 144 125 117 138 213 224 235 248 241 229 229 208 274 295 286 252 237 282 300 274 276 315 5 344 319 331 354 14 7 4 11 14 11 7 10 15 20 24 28 35 40 41 44 51 55 60 65 67 65
134 145 154 177 186 150 63 331 163 142 237 236 287 249 270 237 354 3 351 342 351 97 75 11 332 338 298 307 300 295 290 327 293 4 26 24 14 20 22 19 17 19 25 27 36 41 39 43 39 46 57 62 64 58
145 155 175 180 163 105 102 137 31 332 280 264 338 307 275 341 107 35 15 353 60 26 1 360 312 312 313 316 326 324 8 50 53 31 26 42 20 29 27 26 31 35 33 28 31 33 38 35 33 46 57 59 65 68
140 163 143 168 97 60 79 22 49 348 227 276 339 352 21 73 29 45 319 59 59 360 332 313 333 340 360 10 12 23 39 64 62 60 54 53 39 31 24 19 26 35 37 35 36 38 38 38 47 50 58 63 65 67
134 142 106 75 69 50 242 360 77 3 103 301 16 51 3 342 292 315 86 85 90 6 338 323 337 41 30 31 49 49 50 63 67 63 62 65 58 51 46 38 37 40 41 34 39 46 45 44 48 57 61 65 66 67
113 67 74 68 63 221 4 21 17 29 39 28 40 8 322 301 317 82 93 78 63 15 16 9 18 48 44 37 42 35 27 57 74 62 50 67 64 50 50 47 44 44 44 45 48 49 47 46 48 53 53 57 58 60
83 338 82 356 339 62 37 13 350 51 133 316 50 338 316 339 69 62 77 62 15 18 10 8 38 38 48 57 52 49 46 55 66 72 40 56 74 66 54 54 51 43 39 39 32 34 35 37 38 41 44 42 44 43
100 299 101 174 277 129 179 129 186 195 136 331 238 293 2 83 67 180 36 358 356 2 1 4 352 9 53 32 37 39 30 63 83 76 48 51 54 55 39 32 25 29 25 25 20 18 21 24 25 28 33 38 38 39
131 242 298 350 98 115 82 57 64 116 122 187 273 32 63 98 226 247 7 16 344 357 343 351 10 41 81 76 73 76 79 86 88 88 74 60 52 45 38 27 12 2 354 4 11 5 358 1 4 12 20 24 23 22
154 170 155 228 76 32 131 86 124 167 210 205 110 78 154 180 187 336 354 356 63 45 54 81 91 107 110 100 96 94 87 81 51 25 37 48 44 35 24 22 17 3 1 5 4 352 358 346 349 353 359 1 0 358
87 101 99 51 41 47 148 154 186 215 66 123 137 175 202 107 307 311 348 320 212 25 53 94 89 109 108 94 80 72 76 88 95 67 52 25 5 15 15 19 17 15 15 14 12 8 3 350 352 345 346 343 343 345
220 48 94 84 103 205 246 178 204 255 118 113 116 94 84 73 25 21 314 263 244 228 141 130 138 133 118 110 97 84 80 76 69 61 51 20 359 0 8 14 16 17 15 13 12 14 15 11 6 1 359 358 356 351
86 73 74 66 135 240 227 279 286 215 82 85 52 113 142 150 122 42 38 55 116 138 134 131 134 139 131 123 112 103 86 68 64 54 46 30 22 17 20 18 14 12 12 12 15 14 14 15 15 14 11 9 7 1
37 98 131 115 171 316 59 69 70 84 18 80 52 84 81 117 93 46 20 45 111 144 157 173 166 164 162 150 136 123 115 99 69 54 44 31 22 17 22 21 19 15 12 14 13 13 13 13 10 8 5 3 359 356
69 75 49 83 50 37 352 71 32 32 29 67 48 109 116 103 166 62 24 32 71 105 147 145 141 143 142 138 129 117 104 95 84 57 36 31 24 18 19 18 10 12 13 12 10 9 7 4 4 2 358 357 356 355